�v������,���r���O(���x),�����t���O,���r���O(���x),�����t���O,�L�b�`��(���x),�����t���O,��1(���x),�����t���O,��2���x),�����t���O,�O�C���x,�����t���O,�O�C���x,�����t���O,�������x,�����t���O,�C�ۑ�(���x),�����t���O,�C�ۑ�(���x),�����t���O
9/1/2004 0:00,0,2,0,2,29,0,30.1,0,27.5,0,0,2,0,2,26.4,0,26.4,0,72.8,0
9/1/2004 0:15,0,2,0,2,28.9,0,30,0,27.6,0,0,2,0,2,26.5,0,26.4,0,72.1,0
9/1/2004 0:30,0,2,0,2,28.9,0,30,0,27.6,0,0,2,0,2,26.6,0,26.3,0,71.3,0
9/1/2004 0:45,0,2,0,2,28.7,0,29.8,0,27.6,0,0,2,0,2,26.6,0,26.3,0,70.6,0
9/1/2004 1:00,0,2,0,2,29,0,29.9,0,27.6,0,0,2,0,2,26.7,0,26.3,0,69.8,0
9/1/2004 1:15,0,2,0,2,29.1,0,29.9,0,27.6,0,0,2,0,2,26.8,0,26.3,0,68.8,0
9/1/2004 1:30,0,2,0,2,29,0,29.9,0,27.6,0,0,2,0,2,26.8,0,26.4,0,67.8,0
9/1/2004 1:45,0,2,0,2,29,0,29.9,0,27.5,0,0,2,0,2,26.9,0,26.4,0,66.8,0
9/1/2004 2:00,0,2,0,2,29,0,29.9,0,27.5,0,0,2,0,2,26.9,0,26.5,0,65.8,0
9/1/2004 2:15,0,2,0,2,29,0,29.9,0,27.6,0,0,2,0,2,27,0,26.3,0,66.8,0
9/1/2004 2:30,0,2,0,2,28.7,0,29.8,0,27.6,0,0,2,0,2,27.1,0,26.1,0,67.8,0
9/1/2004 2:45,0,2,0,2,28.6,0,29.8,0,27.6,0,0,2,0,2,27.1,0,26,0,68.8,0
9/1/2004 3:00,0,2,0,2,28.7,0,29.7,0,27.6,0,0,2,0,2,27.2,0,25.8,0,69.8,0
9/1/2004 3:15,0,2,0,2,28.7,0,29.7,0,27.6,0,0,2,0,2,27.2,0,25.6,0,70.1,0
9/1/2004 3:30,0,2,0,2,28.6,0,29.7,0,27.5,0,0,2,0,2,27.3,0,25.5,0,70.3,0
9/1/2004 3:45,0,2,0,2,28.5,0,29.6,0,27.5,0,0,2,0,2,27.3,0,25.3,0,70.6,0
9/1/2004 4:00,0,2,0,2,28.5,0,29.5,0,27.5,0,0,2,0,2,27.4,0,25.2,0,70.8,0
9/1/2004 4:15,0,2,0,2,28.4,0,29.4,0,27.4,0,0,2,0,2,27.4,0,25.1,0,71.3,0
9/1/2004 4:30,0,2,0,2,28.2,0,29.4,0,27.4,0,0,2,0,2,27.5,0,24.9,0,71.8,0
9/1/2004 4:45,0,2,0,2,28.1,0,29.4,0,27.3,0,0,2,0,2,27.5,0,24.8,0,72.3,0
9/1/2004 5:00,0,2,0,2,28.1,0,29.3,0,27.3,0,0,2,0,2,27.6,0,24.7,0,72.8,0
9/1/2004 5:15,0,2,0,2,28.2,0,29.2,0,27.2,0,0,2,0,2,27.6,0,24.7,0,72.6,0
9/1/2004 5:30,0,2,0,2,28.2,0,29.2,0,27.2,0,0,2,0,2,27.7,0,24.7,0,72.3,0
9/1/2004 5:45,0,2,0,2,28.1,0,29.1,0,27.1,0,0,2,0,2,27.7,0,24.7,0,72.1,0
9/1/2004 6:00,0,2,0,2,28.2,0,29.2,0,27.1,0,0,2,0,2,27.7,0,24.7,0,71.8,0
9/1/2004 6:15,0,2,0,2,28.2,0,29.2,0,27.1,0,0,2,0,2,27.8,0,24.8,0,72.1,0
9/1/2004 6:30,0,2,0,2,28.3,0,29.2,0,27.1,0,0,2,0,2,27.8,0,24.9,0,72.3,0
9/1/2004 6:45,0,2,0,2,28.3,0,29.2,0,27.1,0,0,2,0,2,27.8,0,25,0,72.6,0
9/1/2004 7:00,0,2,0,2,28.4,0,29.2,0,27.1,0,0,2,0,2,27.9,0,25.1,0,72.8,0
9/1/2004 7:15,0,2,0,2,28.4,0,29.2,0,27.1,0,0,2,0,2,27.9,0,25.5,0,71.3,0
9/1/2004 7:30,0,2,0,2,28.2,0,29.1,0,27.1,0,0,2,0,2,27.9,0,25.8,0,69.8,0
9/1/2004 7:45,0,2,0,2,28.3,0,29,0,27.1,0,0,2,0,2,25.5,0,26.2,0,68.3,0
9/1/2004 8:00,0,2,0,2,28.3,0,29.1,0,27.1,0,0,2,0,2,25.5,0,26.6,0,66.8,0
9/1/2004 8:15,0,2,0,2,28.4,0,29.1,0,27.1,0,0,2,0,2,25.6,0,27,0,66.1,0
9/1/2004 8:30,0,2,0,2,28.4,0,29.3,0,27.2,0,0,2,0,2,25.7,0,27.5,0,65.3,0
9/1/2004 8:45,0,2,0,2,28.8,0,29.3,0,27.3,0,0,2,0,2,25.8,0,27.9,0,64.6,0
9/1/2004 9:00,0,2,0,2,28.9,0,29.5,0,27.4,0,0,2,0,2,25.8,0,28.4,0,63.8,0
9/1/2004 9:15,0,2,0,2,29.1,0,29.7,0,27.5,0,0,2,0,2,25.9,0,28.6,0,63,0
9/1/2004 9:30,0,2,0,2,28.9,0,29.8,0,27.7,0,0,2,0,2,24.6,0,28.7,0,62.3,0
9/1/2004 9:45,0,2,0,2,29.2,0,30,0,28,0,0,2,0,2,24.6,0,28.9,0,61.5,0
9/1/2004 10:00,0,2,0,2,29.6,0,30.3,0,28.2,0,0,2,0,2,24.7,0,29.1,0,60.8,0
9/1/2004 10:15,0,2,0,2,29.8,0,30.5,0,28.5,0,0,2,0,2,24.8,0,29.2,0,60.3,0
9/1/2004 10:30,0,2,0,2,30,0,30.7,0,28.7,0,0,2,0,2,24.9,0,29.4,0,59.8,0
9/1/2004 10:45,0,2,0,2,30.4,0,31,0,28.8,0,0,2,0,2,25,0,29.5,0,59.3,0
9/1/2004 11:00,0,2,0,2,30.6,0,31.2,0,29.1,0,0,2,0,2,25,0,29.7,0,58.8,0
9/1/2004 11:15,0,2,0,2,30.9,0,31.4,0,29.3,0,0,2,0,2,25.1,0,29.9,0,59.3,0
9/1/2004 11:30,0,2,0,2,31.3,0,31.7,0,29.5,0,0,2,0,2,25.2,0,30.1,0,59.8,0
9/1/2004 11:45,0,2,0,2,31.6,0,31.9,0,29.8,0,0,2,0,2,25.3,0,30.3,0,60.3,0
9/1/2004 12:00,0,2,0,2,31.4,0,32.1,0,30.1,0,0,2,0,2,25.4,0,30.5,0,60.8,0
9/1/2004 12:15,0,2,0,2,31.6,0,32.3,0,30.3,0,0,2,0,2,25.5,0,30.7,0,61,0
9/1/2004 12:30,0,2,0,2,31.9,0,32.4,0,30.5,0,0,2,0,2,25.6,0,30.9,0,61.3,0
9/1/2004 12:45,0,2,0,2,31.9,0,32.5,0,30.6,0,0,2,0,2,25.7,0,31.2,0,61.5,0
9/1/2004 13:00,0,2,0,2,32,0,33,0,30.7,0,0,2,0,2,25.8,0,31.4,0,61.8,0
9/1/2004 13:15,0,2,0,2,32,0,33.3,0,30.8,0,0,2,0,2,26,0,31.6,0,60.5,0
9/1/2004 13:30,0,2,0,2,32.2,0,33.4,0,30.9,0,0,2,0,2,26,0,31.9,0,59.3,0
9/1/2004 13:45,0,2,0,2,32.8,0,33.8,0,31.1,0,0,2,0,2,26.1,0,32.1,0,58,0
9/1/2004 14:00,0,2,0,2,32.8,0,34.1,0,31.2,0,0,2,0,2,25.8,0,32.4,0,56.8,0
9/1/2004 14:15,0,2,0,2,32.8,0,34.1,0,30.9,0,0,2,0,2,25.8,0,32.3,0,57,0
9/1/2004 14:30,0,2,0,2,32.9,0,34.2,0,30.8,0,0,2,0,2,25.9,0,32.2,0,57.3,0
9/1/2004 14:45,0,2,0,2,32.8,0,34,0,30.7,0,0,2,0,2,26,0,32.1,0,57.5,0
9/1/2004 15:00,0,2,0,2,32.7,0,34,0,30.7,0,0,2,0,2,26.1,0,32,0,57.8,0
9/1/2004 15:15,0,2,0,2,32.8,0,33.9,0,30.7,0,0,2,0,2,26.2,0,31.4,0,60.1,0
9/1/2004 15:30,0,2,0,2,32.8,0,33.9,0,30.7,0,0,2,0,2,26.3,0,30.9,0,62.3,0
9/1/2004 15:45,0,2,0,2,32.5,0,33.7,0,30.7,0,0,2,0,2,26.4,0,30.3,0,64.6,0
9/1/2004 16:00,0,2,0,2,32.4,0,33.5,0,30.8,0,0,2,0,2,26.5,0,29.8,0,66.8,0
9/1/2004 16:15,0,2,0,2,32.1,0,33.4,0,30.8,0,0,2,0,2,26.6,0,29.5,0,67.8,0
9/1/2004 16:30,0,2,0,2,31.7,0,33.3,0,30.8,0,0,2,0,2,26.7,0,29.3,0,68.8,0
9/1/2004 16:45,0,2,0,2,31.5,0,33.2,0,30.7,0,0,2,0,2,26.8,0,29,0,69.8,0
9/1/2004 17:00,0,2,0,2,31.4,0,33,0,30.7,0,0,2,0,2,26.9,0,28.8,0,70.8,0
9/1/2004 17:15,0,2,0,2,31,0,32.9,0,30.6,0,0,2,0,2,27,0,28.7,0,70.6,0
9/1/2004 17:30,0,2,0,2,30.7,0,32.6,0,30.5,0,0,2,0,2,27.1,0,28.6,0,70.3,0
9/1/2004 17:45,0,2,0,2,30.7,0,32.5,0,30.1,0,0,2,0,2,27.2,0,28.6,0,70.1,0
9/1/2004 18:00,0,2,0,2,30.5,0,32.3,0,29.8,0,0,2,0,2,27.2,0,28.5,0,69.8,0
9/1/2004 18:15,0,2,0,2,29.7,0,32,0,29.6,0,0,2,0,2,26.3,0,28.2,0,70.3,0
9/1/2004 18:30,0,2,0,2,29.6,0,31.7,0,29.6,0,0,2,0,2,26,0,28,0,70.8,0
9/1/2004 18:45,0,2,0,2,29.4,0,31.5,0,29.4,0,0,2,0,2,26.1,0,27.7,0,71.3,0
9/1/2004 19:00,0,2,0,2,29.6,0,31.4,0,29.2,0,0,2,0,2,26.2,0,27.5,0,71.8,0
9/1/2004 19:15,0,2,0,2,32.2,0,31.5,0,29.1,0,0,2,0,2,26.3,0,27.5,0,71.6,0
9/1/2004 19:30,0,2,0,2,31.4,0,31.7,0,29,0,0,2,0,2,26.3,0,27.4,0,71.3,0
9/1/2004 19:45,0,2,0,2,29.4,0,31.8,0,28.8,0,0,2,0,2,26.4,0,27.4,0,71.1,0
9/1/2004 20:00,0,2,0,2,29.4,0,31.2,0,28.7,0,0,2,0,2,26.5,0,27.4,0,70.8,0
9/1/2004 20:15,0,2,0,2,29.1,0,30.8,0,28.6,0,0,2,0,2,26.6,0,27.3,0,70.8,0
9/1/2004 20:30,0,2,0,2,29.2,0,30.7,0,28.5,0,0,2,0,2,26.7,0,27.2,0,70.8,0
9/1/2004 20:45,0,2,0,2,29.1,0,30.5,0,28.5,0,0,2,0,2,26.7,0,27.1,0,70.8,0
9/1/2004 21:00,0,2,0,2,28.9,0,30.4,0,28.4,0,0,2,0,2,26.8,0,27,0,70.8,0
9/1/2004 21:15,0,2,0,2,28.9,0,30.3,0,28.3,0,0,2,0,2,26.9,0,27,0,69.8,0
9/1/2004 21:30,0,2,0,2,28.9,0,30.2,0,28.3,0,0,2,0,2,27,0,27.1,0,68.8,0
9/1/2004 21:45,0,2,0,2,28.5,0,30,0,28.2,0,0,2,0,2,27,0,27.1,0,67.8,0
9/1/2004 22:00,0,2,0,2,28.3,0,29.8,0,28.2,0,0,2,0,2,27.1,0,27.2,0,66.8,0
9/1/2004 22:15,0,2,0,2,28.4,0,29.8,0,28.3,0,0,2,0,2,27.2,0,27.2,0,66.6,0
9/1/2004 22:30,0,2,0,2,28.4,0,29.7,0,28.2,0,0,2,0,2,27.2,0,27.2,0,66.3,0
9/1/2004 22:45,0,2,0,2,28.2,0,29.7,0,28.2,0,0,2,0,2,27.3,0,27.3,0,66.1,0
9/1/2004 23:00,0,2,0,2,28.1,0,29.6,0,28.2,0,0,2,0,2,27.3,0,27.3,0,65.8,0
9/1/2004 23:15,0,2,0,2,28.2,0,29.5,0,28.2,0,0,2,0,2,27.4,0,27.2,0,66.3,0
9/1/2004 23:30,0,2,0,2,28.2,0,29.5,0,28.3,0,0,2,0,2,27.5,0,27.1,0,66.8,0
9/1/2004 23:45,0,2,0,2,28.4,0,29.6,0,28.3,0,0,2,0,2,27.5,0,27,0,67.3,0
9/2/2004 0:00,0,2,0,2,28.5,0,29.7,0,28.4,0,0,2,0,2,27.6,0,26.9,0,67.8,0
9/2/2004 0:15,0,2,0,2,28.5,0,29.8,0,28.4,0,0,2,0,2,27.6,0,26.8,0,68.1,0
9/2/2004 0:30,0,2,0,2,28.5,0,29.8,0,28.5,0,0,2,0,2,27.7,0,26.7,0,68.3,0
9/2/2004 0:45,0,2,0,2,28.6,0,29.9,0,28.5,0,0,2,0,2,27.7,0,26.7,0,68.6,0
9/2/2004 1:00,0,2,0,2,28.5,0,29.9,0,28.6,0,0,2,0,2,27.7,0,26.6,0,68.8,0
9/2/2004 1:15,0,2,0,2,28.4,0,29.9,0,28.6,0,0,2,0,2,27.8,0,26.6,0,68.1,0
9/2/2004 1:30,0,2,0,2,28.4,0,29.9,0,28.5,0,0,2,0,2,27.9,0,26.6,0,67.3,0
9/2/2004 1:45,0,2,0,2,28.4,0,29.9,0,28.6,0,0,2,0,2,27.9,0,26.7,0,66.6,0
9/2/2004 2:00,0,2,0,2,28.4,0,29.9,0,28.6,0,0,2,0,2,27.9,0,26.7,0,65.8,0
9/2/2004 2:15,0,2,0,2,28.4,0,29.8,0,28.5,0,0,2,0,2,28,0,26.6,0,66.3,0
9/2/2004 2:30,0,2,0,2,28.2,0,29.8,0,28.5,0,0,2,0,2,28,0,26.6,0,66.8,0
9/2/2004 2:45,0,2,0,2,28.3,0,29.8,0,28.5,0,0,2,0,2,28,0,26.5,0,67.3,0
9/2/2004 3:00,0,2,0,2,28.2,0,29.8,0,28.5,0,0,2,0,2,28.1,0,26.5,0,67.8,0
9/2/2004 3:15,0,2,0,2,28.2,0,29.7,0,28.5,0,0,2,0,2,28.1,0,26.4,0,67.6,0
9/2/2004 3:30,0,2,0,2,28.3,0,29.7,0,28.5,0,0,2,0,2,28.2,0,26.4,0,67.3,0
9/2/2004 3:45,0,2,0,2,28.2,0,29.7,0,28.5,0,0,2,0,2,28.2,0,26.3,0,67.1,0
9/2/2004 4:00,0,2,0,2,28.2,0,29.7,0,28.5,0,0,2,0,2,28.2,0,26.3,0,66.8,0
9/2/2004 4:15,0,2,0,2,28.2,0,29.7,0,28.5,0,0,2,0,2,28.3,0,26.2,0,68.1,0
9/2/2004 4:30,0,2,0,2,28.5,0,29.7,0,28.5,0,0,2,0,2,28.3,0,26.1,0,69.3,0
9/2/2004 4:45,0,2,0,2,28.5,0,29.6,0,28.4,0,0,2,0,2,28.3,0,26.1,0,70.6,0
9/2/2004 5:00,0,2,0,2,28.3,0,29.5,0,28.4,0,0,2,0,2,28.4,0,26,0,71.8,0
9/2/2004 5:15,0,2,0,2,28.3,0,29.6,0,28.4,0,0,2,0,2,28.4,0,26,0,71.6,0
9/2/2004 5:30,0,2,0,2,28.3,0,29.6,0,28.3,0,0,2,0,2,28.4,0,26.1,0,71.3,0
9/2/2004 5:45,0,2,0,2,28.4,0,29.5,0,28.3,0,0,2,0,2,28.5,0,26.1,0,71.1,0
9/2/2004 6:00,0,2,0,2,28.2,0,29.5,0,28.3,0,0,2,0,2,28.5,0,26.2,0,70.8,0
9/2/2004 6:15,0,2,0,2,28.4,0,29.5,0,28.3,0,0,2,0,2,28.5,0,26.3,0,71.1,0
9/2/2004 6:30,0,2,0,2,28.5,0,29.5,0,28.3,0,0,2,0,2,28.5,0,26.4,0,71.3,0
9/2/2004 6:45,0,2,0,2,28.6,0,29.5,0,28.2,0,0,2,0,2,28.6,0,26.6,0,71.6,0
9/2/2004 7:00,0,2,0,2,28.6,0,29.7,0,28.1,0,0,2,0,2,25.9,0,26.7,0,71.8,0
9/2/2004 7:15,0,2,0,2,28.6,0,29.9,0,28.1,0,0,2,0,2,26,0,27.1,0,68.6,0
9/2/2004 7:30,0,2,0,2,28.6,0,30.1,0,28.1,0,0,2,0,2,26.1,0,27.5,0,65.3,0
9/2/2004 7:45,0,2,0,2,28.5,0,30.1,0,28.1,0,0,2,0,2,26.1,0,28,0,62.1,0
9/2/2004 8:00,0,2,0,2,28.8,0,30.2,0,28.1,0,0,2,0,2,26.2,0,28.4,0,58.8,0
9/2/2004 8:15,0,2,0,2,29.1,0,30.3,0,28.1,0,0,2,0,2,26.3,0,28.6,0,58.3,0
9/2/2004 8:30,0,2,0,2,29.1,0,30.4,0,28.1,0,0,2,0,2,25.5,0,28.7,0,57.8,0
9/2/2004 8:45,0,2,0,2,29.1,0,30.4,0,28.1,0,0,2,0,2,25.5,0,28.9,0,57.3,0
9/2/2004 9:00,0,2,0,2,29.2,0,30.5,0,28.2,0,0,2,0,2,25.6,0,29.1,0,56.8,0
9/2/2004 9:15,0,2,0,2,29.5,0,30.6,0,28.3,0,0,2,0,2,25.7,0,29.3,0,56.3,0
9/2/2004 9:30,0,2,0,2,29.4,0,30.7,0,28.4,0,0,2,0,2,25.8,0,29.5,0,55.8,0
9/2/2004 9:45,0,2,0,2,29.5,0,30.6,0,28.4,0,0,2,0,2,25.9,0,29.8,0,55.3,0
9/2/2004 10:00,0,2,0,2,29.5,0,30.6,0,28.5,0,0,2,0,2,26,0,30,0,54.8,0
9/2/2004 10:15,0,2,0,2,30.1,0,30.7,0,28.6,0,0,2,0,2,26,0,30.1,0,54.8,0
9/2/2004 10:30,0,2,0,2,30.2,0,31.1,0,28.6,0,0,2,0,2,25.7,0,30.1,0,54.8,0
9/2/2004 10:45,0,2,0,2,30.5,0,31.4,0,28.6,0,0,2,0,2,25.7,0,30.2,0,54.8,0
9/2/2004 11:00,0,2,0,2,30.9,0,31.6,0,28.7,0,0,2,0,2,25.8,0,30.3,0,54.8,0
9/2/2004 11:15,0,2,0,2,31.3,0,31.8,0,28.8,0,0,2,0,2,25.9,0,30.3,0,54.5,0
9/2/2004 11:30,0,2,0,2,31.6,0,32.1,0,28.8,0,0,2,0,2,26,0,30.4,0,54.3,0
9/2/2004 11:45,0,2,0,2,31.8,0,32.3,0,28.9,0,0,2,0,2,26.1,0,30.4,0,54,0
9/2/2004 12:00,0,2,0,2,31.9,0,32.5,0,29,0,0,2,0,2,26.2,0,30.5,0,53.8,0
9/2/2004 12:15,0,2,0,2,32.1,0,32.6,0,29.1,0,0,2,0,2,26.3,0,30.7,0,54.3,0
9/2/2004 12:30,0,2,0,2,32.2,0,32.8,0,29.1,0,0,2,0,2,26.4,0,30.8,0,54.8,0
9/2/2004 12:45,0,2,0,2,32.3,0,32.9,0,29.2,0,0,2,0,2,26.5,0,31,0,55.3,0
9/2/2004 13:00,0,2,0,2,32.5,0,33.1,0,29.3,0,0,2,0,2,26.5,0,31.2,0,55.8,0
9/2/2004 13:15,0,2,0,2,32.8,0,33.2,0,29.3,0,0,2,0,2,26.6,0,31.2,0,55.8,0
9/2/2004 13:30,0,2,0,2,32.9,0,33.4,0,29.4,0,0,2,0,2,26.7,0,31.1,0,55.8,0
9/2/2004 13:45,0,2,0,2,33.1,0,33.5,0,29.5,0,0,2,0,2,26.8,0,31.1,0,55.8,0
9/2/2004 14:00,0,2,0,2,33.2,0,33.6,0,29.5,0,0,2,0,2,26.9,0,31.1,0,55.8,0
9/2/2004 14:15,0,2,0,2,33.4,0,33.8,0,29.6,0,0,2,0,2,27,0,31,0,55.8,0
9/2/2004 14:30,0,2,0,2,33.5,0,33.9,0,29.7,0,0,2,0,2,27.1,0,30.9,0,55.8,0
9/2/2004 14:45,0,2,0,2,33.6,0,34.1,0,29.8,0,0,2,0,2,27.2,0,30.8,0,55.8,0
9/2/2004 15:00,0,2,0,2,33.8,0,34.2,0,29.9,0,0,2,0,2,27.3,0,30.7,0,55.8,0
9/2/2004 15:15,0,2,0,2,33.8,0,34.4,0,30,0,0,2,0,2,27.4,0,30.6,0,56,0
9/2/2004 15:30,0,2,0,2,33.9,0,34.4,0,30.1,0,0,2,0,2,27.5,0,30.5,0,56.3,0
9/2/2004 15:45,0,2,0,2,33.9,0,34.5,0,30.2,0,0,2,0,2,27.5,0,30.5,0,56.5,0
9/2/2004 16:00,0,2,0,2,33.8,0,34.6,0,30.3,0,0,2,0,2,27.6,0,30.4,0,56.8,0
9/2/2004 16:15,0,2,0,2,33.7,0,34.5,0,30.3,0,0,2,0,2,27.7,0,29.9,0,58.3,0
9/2/2004 16:30,0,2,0,2,33.2,0,34.5,0,30.3,0,0,2,0,2,27.8,0,29.4,0,59.8,0
9/2/2004 16:45,0,2,0,2,33.2,0,34.1,0,30.2,0,0,2,0,2,27.9,0,29,0,61.3,0
9/2/2004 17:00,0,2,0,2,33.1,0,34,0,30.2,0,0,2,0,2,28,0,28.5,0,62.8,0
9/2/2004 17:15,0,2,0,2,32.5,0,33.6,0,30.1,0,0,2,0,2,28,0,28.3,0,64.1,0
9/2/2004 17:30,0,2,0,2,32.6,0,33.4,0,30,0,0,2,0,2,28.1,0,28,0,65.3,0
9/2/2004 17:45,0,2,0,2,32.4,0,33.2,0,30,0,0,2,0,2,28.2,0,27.8,0,66.6,0
9/2/2004 18:00,0,2,0,2,32.3,0,33.1,0,29.9,0,0,2,0,2,28.3,0,27.6,0,67.8,0
9/2/2004 18:15,0,2,0,2,31.9,0,33,0,29.8,0,0,2,0,2,28.4,0,27.4,0,68.6,0
9/2/2004 18:30,0,2,0,2,31.6,0,32.8,0,29.7,0,0,2,0,2,28.4,0,27.2,0,69.3,0
9/2/2004 18:45,0,2,0,2,31.5,0,32.6,0,29.6,0,0,2,0,2,28.5,0,27.1,0,70.1,0
9/2/2004 19:00,0,2,0,2,31.2,0,32.5,0,29.3,0,0,2,0,2,28.6,0,26.9,0,70.8,0
9/2/2004 19:15,0,2,0,2,31,0,32.3,0,29,0,0,2,0,2,28.7,0,26.7,0,70.1,0
9/2/2004 19:30,0,2,0,2,30.9,0,32.3,0,28.8,0,0,2,0,2,28.7,0,26.6,0,69.3,0
9/2/2004 19:45,0,2,0,2,30.3,0,32.5,0,28.6,0,0,2,0,2,28.8,0,26.4,0,68.6,0
9/2/2004 20:00,0,2,0,2,30.5,0,32.6,0,28.5,0,0,2,0,2,28.8,0,26.3,0,67.8,0
9/2/2004 20:15,0,2,0,2,30.1,0,32.4,0,28.4,0,0,2,0,2,28.9,0,26.2,0,67.8,0
9/2/2004 20:30,0,2,0,2,30,0,32.1,0,28.3,0,0,2,0,2,28.9,0,26.1,0,67.8,0
9/2/2004 20:45,0,2,0,2,29.7,0,32,0,28.1,0,0,2,0,2,29,0,26.1,0,67.8,0
9/2/2004 21:00,0,2,0,2,29.6,0,31.6,0,28,0,0,2,0,2,29,0,26,0,67.8,0
9/2/2004 21:15,0,2,0,2,29.7,0,31.4,0,27.9,0,0,2,0,2,29.1,0,25.9,0,68.1,0
9/2/2004 21:30,0,2,0,2,29,0,31,0,27.9,0,0,2,0,2,29.1,0,25.7,0,68.3,0
9/2/2004 21:45,0,2,0,2,29.1,0,30.4,0,27.8,0,0,2,0,2,29.2,0,25.6,0,68.6,0
9/2/2004 22:00,0,2,0,2,29.1,0,29.7,0,27.8,0,0,2,0,2,29.2,0,25.5,0,68.8,0
9/2/2004 22:15,0,2,0,2,28.5,0,29.5,0,27.8,0,0,2,0,2,29.2,0,25.4,0,69.1,0
9/2/2004 22:30,0,2,0,2,29.1,0,29.5,0,27.8,0,0,2,0,2,29.3,0,25.4,0,69.3,0
9/2/2004 22:45,0,2,0,2,29,0,29.6,0,27.7,0,0,2,0,2,29.3,0,25.3,0,69.6,0
9/2/2004 23:00,0,2,0,2,28.5,0,29.4,0,27.6,0,0,2,0,2,29.3,0,25.3,0,69.8,0
9/2/2004 23:15,0,2,0,2,28.4,0,29.1,0,27.6,0,0,2,0,2,29.3,0,25.2,0,70.3,0
9/2/2004 23:30,0,2,0,2,28.6,0,29.2,0,27.5,0,0,2,0,2,29.3,0,25.1,0,70.8,0
9/2/2004 23:45,0,2,0,2,29.2,0,29.4,0,27.6,0,0,2,0,2,29.4,0,25.1,0,71.3,0
9/3/2004 0:00,0,2,0,2,29.3,0,29.6,0,27.7,0,0,2,0,2,29.4,0,25,0,71.8,0
9/3/2004 0:15,0,2,0,2,29.5,0,29.8,0,27.8,0,0,2,0,2,29.4,0,24.9,0,73.1,0
9/3/2004 0:30,0,2,0,2,29.2,0,30,0,27.8,0,0,2,0,2,29.4,0,24.8,0,74.3,0
9/3/2004 0:45,0,2,0,2,29.3,0,30,0,27.9,0,0,2,0,2,29.5,0,24.7,0,75.6,0
9/3/2004 1:00,0,2,0,2,29.3,0,30.1,0,27.9,0,0,2,0,2,29.5,0,24.6,0,76.8,0
9/3/2004 1:15,0,2,0,2,29.3,0,30.1,0,27.9,0,0,2,0,2,29.5,0,24.5,0,75.8,0
9/3/2004 1:30,0,2,0,2,29.2,0,30,0,27.9,0,0,2,0,2,29.5,0,24.4,0,74.8,0
9/3/2004 1:45,0,2,0,2,29.1,0,29.9,0,27.9,0,0,2,0,2,29.6,0,24.4,0,73.8,0
9/3/2004 2:00,0,2,0,2,29.1,0,29.9,0,27.9,0,0,2,0,2,29.6,0,24.3,0,72.8,0
9/3/2004 2:15,0,2,0,2,29.1,0,29.9,0,27.9,0,0,2,0,2,29.6,0,24.2,0,72.8,0
9/3/2004 2:30,0,2,0,2,29.1,0,29.9,0,27.8,0,0,2,0,2,29.6,0,24.1,0,72.8,0
9/3/2004 2:45,0,2,0,2,29.1,0,29.8,0,27.8,0,0,2,0,2,29.6,0,24,0,72.8,0
9/3/2004 3:00,0,2,0,2,29.1,0,29.8,0,27.8,0,0,2,0,2,29.6,0,23.9,0,72.8,0
9/3/2004 3:15,0,2,0,2,29,0,29.8,0,27.7,0,0,2,0,2,29.7,0,23.8,0,72.6,0
9/3/2004 3:30,0,2,0,2,28.9,0,29.8,0,27.7,0,0,2,0,2,29.7,0,23.8,0,72.3,0
9/3/2004 3:45,0,2,0,2,28.8,0,29.8,0,27.7,0,0,2,0,2,29.7,0,23.7,0,72.1,0
9/3/2004 4:00,0,2,0,2,28.9,0,29.8,0,27.7,0,0,2,0,2,29.7,0,23.7,0,71.8,0
9/3/2004 4:15,0,2,0,2,28.8,0,29.7,0,27.6,0,0,2,0,2,29.7,0,23.6,0,72.6,0
9/3/2004 4:30,0,2,0,2,28.8,0,29.7,0,27.6,0,0,2,0,2,29.8,0,23.5,0,73.3,0
9/3/2004 4:45,0,2,0,2,28.6,0,29.7,0,27.6,0,0,2,0,2,29.8,0,23.4,0,74.1,0
9/3/2004 5:00,0,2,0,2,28.6,0,29.6,0,27.5,0,0,2,0,2,29.8,0,23.3,0,74.8,0
9/3/2004 5:15,0,2,0,2,28.6,0,29.5,0,27.5,0,0,2,0,2,29.8,0,23.3,0,74.1,0
9/3/2004 5:30,0,2,0,2,28.7,0,29.5,0,27.5,0,0,2,0,2,29.8,0,23.4,0,73.3,0
9/3/2004 5:45,0,2,0,2,28.6,0,29.5,0,27.4,0,0,2,0,2,29.8,0,23.4,0,72.6,0
9/3/2004 6:00,0,2,0,2,28.4,0,29.4,0,27.4,0,0,2,0,2,29.8,0,23.5,0,71.8,0
9/3/2004 6:15,0,2,0,2,28.6,0,29.4,0,27.4,0,0,2,0,2,29.8,0,23.7,0,71.8,0
9/3/2004 6:30,0,2,0,2,28.6,0,29.3,0,27.4,0,0,2,0,2,29.9,0,23.8,0,71.8,0
9/3/2004 6:45,0,2,0,2,28.6,0,29.4,0,27.4,0,0,2,0,2,29.9,0,24,0,71.8,0
9/3/2004 7:00,0,2,0,2,28.2,0,29.2,0,27.4,0,0,2,0,2,29.9,0,24.2,0,71.8,0
9/3/2004 7:15,0,2,0,2,27.9,0,28.9,0,27.3,0,0,2,0,2,26.3,0,24.3,0,70.6,0
9/3/2004 7:30,0,2,0,2,27.1,0,29,0,27.3,0,0,2,0,2,26.4,0,24.5,0,69.3,0
9/3/2004 7:45,0,2,0,2,27.5,0,28.2,0,27.2,0,0,2,0,2,26.4,0,24.6,0,68.1,0
9/3/2004 8:00,0,2,0,2,27.1,0,28.1,0,27.1,0,0,2,0,2,26.5,0,24.8,0,66.8,0
9/3/2004 8:15,0,2,0,2,27.3,0,28.1,0,27.1,0,0,2,0,2,26.6,0,25.3,0,65.8,0
9/3/2004 8:30,0,2,0,2,27.4,0,28.1,0,27.1,0,0,2,0,2,26.6,0,25.7,0,64.8,0
9/3/2004 8:45,0,2,0,2,28,0,28.3,0,27.2,0,0,2,0,2,26.7,0,26.2,0,63.8,0
9/3/2004 9:00,0,2,0,2,28.3,0,28.6,0,27.2,0,0,2,0,2,26.7,0,26.7,0,62.8,0
9/3/2004 9:15,0,2,0,2,27.8,0,28.8,0,27.3,0,0,2,0,2,26.8,0,26.7,0,63.3,0
9/3/2004 9:30,0,2,0,2,28.4,0,28.7,0,27.3,0,0,2,0,2,26.8,0,26.8,0,63.8,0
9/3/2004 9:45,0,2,0,2,28.5,0,29,0,27.6,0,0,2,0,2,26.9,0,26.8,0,64.3,0
9/3/2004 10:00,0,2,0,2,28.9,0,29.3,0,27.8,0,0,2,0,2,27,0,26.9,0,64.8,0
9/3/2004 10:15,0,2,0,2,28.6,0,29.4,0,28,0,0,2,0,2,27,0,27,0,64.1,0
9/3/2004 10:30,0,2,0,2,29.2,0,29.6,0,28.1,0,0,2,0,2,27.1,0,27.2,0,63.3,0
9/3/2004 10:45,0,2,0,2,28.6,0,29.7,0,28.3,0,0,2,0,2,27.2,0,27.3,0,62.6,0
9/3/2004 11:00,0,2,0,2,29.7,0,29.9,0,28.5,0,0,2,0,2,27.2,0,27.5,0,61.8,0
9/3/2004 11:15,0,2,0,2,29.7,0,30.3,0,28.6,0,0,2,0,2,27.3,0,27.7,0,61.3,0
9/3/2004 11:30,0,2,0,2,29.7,0,30.4,0,28.8,0,0,2,0,2,27.3,0,27.8,0,60.8,0
9/3/2004 11:45,0,2,0,2,30.4,0,30.6,0,28.9,0,0,2,0,2,27.4,0,28,0,60.3,0
9/3/2004 12:00,0,2,0,2,30.6,0,31,0,29,0,0,2,0,2,27.4,0,28.2,0,59.8,0
9/3/2004 12:15,0,2,0,2,37.9,0,31.3,0,29.1,0,0,2,0,2,27.5,0,28.7,0,58.5,0
9/3/2004 12:30,0,2,0,2,32.1,0,31.6,0,29.2,0,0,2,0,2,27.6,0,29.2,0,57.3,0
9/3/2004 12:45,0,2,0,2,32.1,0,32,0,29.3,0,0,2,0,2,27.6,0,29.7,0,56,0
9/3/2004 13:00,0,2,0,2,31.8,0,32.1,0,29.3,0,0,2,0,2,25.3,0,30.2,0,54.8,0
9/3/2004 13:15,0,2,0,2,31.8,0,32.3,0,29.1,0,0,2,0,2,25.4,0,30.1,0,54.3,0
9/3/2004 13:30,0,2,0,2,32.2,0,32.4,0,28.9,0,0,2,0,2,25.5,0,30,0,53.8,0
9/3/2004 13:45,0,2,0,2,32.4,0,32.8,0,29,0,0,2,0,2,25.6,0,30,0,53.3,0
9/3/2004 14:00,0,2,0,2,32.5,0,33,0,29.2,0,0,2,0,2,25.7,0,29.9,0,52.8,0
9/3/2004 14:15,0,2,0,2,32.6,0,33.1,0,29.3,0,0,2,0,2,25.8,0,30,0,52.5,0
9/3/2004 14:30,0,2,0,2,32.7,0,33.2,0,29.3,0,0,2,0,2,25.9,0,30.1,0,52.3,0
9/3/2004 14:45,0,2,0,2,32.8,0,33.3,0,29.3,0,0,2,0,2,26,0,30.2,0,52,0
9/3/2004 15:00,0,2,0,2,32.8,0,33.4,0,29.3,0,0,2,0,2,26.1,0,30.3,0,51.8,0
9/3/2004 15:15,0,2,0,2,32.7,0,33.4,0,29.4,0,0,2,0,2,26.2,0,30.2,0,52,0
9/3/2004 15:30,0,2,0,2,32.7,0,33.3,0,29.3,0,0,2,0,2,26.3,0,30.1,0,52.3,0
9/3/2004 15:45,0,2,0,2,32.8,0,33.2,0,29.3,0,0,2,0,2,26.3,0,30.1,0,52.5,0
9/3/2004 16:00,0,2,0,2,32.8,0,33.3,0,29.2,0,0,2,0,2,26.5,0,30,0,52.8,0
9/3/2004 16:15,0,2,0,2,32.6,0,33.2,0,29.2,0,0,2,0,2,26.5,0,29.8,0,54.5,0
9/3/2004 16:30,0,2,0,2,32.6,0,33.2,0,29.2,0,0,2,0,2,26.6,0,29.5,0,56.3,0
9/3/2004 16:45,0,2,0,2,32.3,0,33.1,0,29.2,0,0,2,0,2,26.7,0,29.3,0,58,0
9/3/2004 17:00,0,2,0,2,32.4,0,33,0,29.1,0,0,2,0,2,26.8,0,29.1,0,59.8,0
9/3/2004 17:15,0,2,0,2,32.4,0,32.9,0,29.1,0,0,2,0,2,26.9,0,28.8,0,60.5,0
9/3/2004 17:30,0,2,0,2,32.2,0,32.9,0,29,0,0,2,0,2,27,0,28.5,0,61.3,0
9/3/2004 17:45,0,2,0,2,32.2,0,32.9,0,29,0,0,2,0,2,27.1,0,28.3,0,62,0
9/3/2004 18:00,0,2,0,2,31.4,0,32.8,0,28.9,0,0,2,0,2,27.2,0,28,0,62.8,0
9/3/2004 18:15,0,2,0,2,30.6,0,32.5,0,28.8,0,0,2,0,2,27.2,0,27.8,0,64.3,0
9/3/2004 18:30,0,2,0,2,30.1,0,32.1,0,28.5,0,0,2,0,2,27.3,0,27.5,0,65.8,0
9/3/2004 18:45,0,2,0,2,29.7,0,31.7,0,28.2,0,0,2,0,2,27.4,0,27.3,0,67.3,0
9/3/2004 19:00,0,2,0,2,30.1,0,31.4,0,28.1,0,0,2,0,2,27.5,0,27.1,0,68.8,0
9/3/2004 19:15,0,2,0,2,31,0,31.7,0,27.9,0,0,2,0,2,27.5,0,26.9,0,69.6,0
9/3/2004 19:30,0,2,0,2,29.8,0,31.7,0,27.8,0,0,2,0,2,27.6,0,26.7,0,70.3,0
9/3/2004 19:45,0,2,0,2,29.7,0,31.4,0,27.8,0,0,2,0,2,27.7,0,26.6,0,71.1,0
9/3/2004 20:00,0,2,0,2,29.7,0,31.2,0,27.8,0,0,2,0,2,27.7,0,26.4,0,71.8,0
9/3/2004 20:15,0,2,0,2,29.6,0,31,0,27.8,0,0,2,0,2,27.8,0,26.3,0,73.1,0
9/3/2004 20:30,0,2,0,2,29.6,0,30.9,0,27.7,0,0,2,0,2,27.8,0,26.1,0,74.3,0
9/3/2004 20:45,0,2,0,2,29.4,0,30.7,0,27.6,0,0,2,0,2,27.9,0,26,0,75.6,0
9/3/2004 21:00,0,2,0,2,29.2,0,30.5,0,27.6,0,0,2,0,2,27.9,0,25.9,0,76.8,0
9/3/2004 21:15,0,2,0,2,29.4,0,30.5,0,27.5,0,0,2,0,2,28,0,25.9,0,76.6,0
9/3/2004 21:30,0,2,0,2,29.2,0,30.3,0,27.5,0,0,2,0,2,28,0,25.9,0,76.3,0
9/3/2004 21:45,0,2,0,2,29.1,0,30.2,0,27.4,0,0,2,0,2,28.1,0,26,0,76.1,0
9/3/2004 22:00,0,2,0,2,29.2,0,30.3,0,27.5,0,0,2,0,2,28.1,0,26,0,75.8,0
9/3/2004 22:15,0,2,0,2,29.1,0,30.4,0,27.5,0,0,2,0,2,28.2,0,26,0,76.6,0
9/3/2004 22:30,0,2,0,2,29.1,0,30.4,0,27.5,0,0,2,0,2,28.2,0,25.9,0,77.3,0
9/3/2004 22:45,0,2,0,2,29.4,0,30.5,0,27.5,0,0,2,0,2,28.2,0,25.9,0,78.1,0
9/3/2004 23:00,0,2,0,2,29.3,0,30.4,0,27.6,0,0,2,0,2,28.3,0,25.9,0,78.8,0
9/3/2004 23:15,0,2,0,2,29.1,0,30.2,0,27.7,0,0,2,0,2,28.3,0,25.7,0,79.3,0
9/3/2004 23:30,0,2,0,2,29.3,0,30.3,0,27.7,0,0,2,0,2,28.4,0,25.5,0,79.8,0
9/3/2004 23:45,0,2,0,2,29,0,30.1,0,27.7,0,0,2,0,2,28.4,0,25.4,0,80.3,0
9/4/2004 0:00,0,2,0,2,28.6,0,29.7,0,27.8,0,0,2,0,2,28.4,0,25.2,0,80.8,0
9/4/2004 0:15,0,2,0,2,28.9,0,29.3,0,27.8,0,0,2,0,2,28.5,0,25,0,82.8,0
9/4/2004 0:30,0,2,0,2,29.2,0,29.6,0,27.8,0,0,2,0,2,28.5,0,24.8,0,84.8,0
9/4/2004 0:45,0,2,0,2,29.2,0,29.7,0,27.8,0,0,2,0,2,28.6,0,24.7,0,86.8,0
9/4/2004 1:00,0,2,0,2,29,0,29.6,0,27.8,0,0,2,0,2,28.6,0,24.5,0,88.8,0
9/4/2004 1:15,0,2,0,2,29,0,29.6,0,27.8,0,0,2,0,2,28.6,0,24.1,0,88.1,0
9/4/2004 1:30,0,2,0,2,29.1,0,29.6,0,27.8,0,0,2,0,2,28.6,0,23.7,0,87.3,0
9/4/2004 1:45,0,2,0,2,29,0,29.6,0,27.8,0,0,2,0,2,28.7,0,23.3,0,86.6,0
9/4/2004 2:00,0,2,0,2,28.8,0,29.3,0,27.8,0,0,2,0,2,28.7,0,22.9,0,85.8,0
9/4/2004 2:15,0,2,0,2,28.7,0,29.3,0,27.8,0,0,2,0,2,28.7,0,22.9,0,84.6,0
9/4/2004 2:30,0,2,0,2,28.7,0,29.2,0,27.7,0,0,2,0,2,28.7,0,22.8,0,83.3,0
9/4/2004 2:45,0,2,0,2,28.6,0,29.1,0,27.7,0,0,2,0,2,28.8,0,22.8,0,82.1,0
9/4/2004 3:00,0,2,0,2,28.5,0,29,0,27.6,0,0,2,0,2,28.8,0,22.8,0,80.8,0
9/4/2004 3:15,0,2,0,2,28.4,0,28.9,0,27.6,0,0,2,0,2,28.8,0,22.9,0,81.1,0
9/4/2004 3:30,0,2,0,2,28.4,0,29,0,27.5,0,0,2,0,2,28.8,0,22.9,0,81.3,0
9/4/2004 3:45,0,2,0,2,28.5,0,29,0,27.5,0,0,2,0,2,28.9,0,23,0,81.6,0
9/4/2004 4:00,0,2,0,2,28.4,0,29,0,27.5,0,0,2,0,2,28.9,0,23.1,0,81.8,0
9/4/2004 4:15,0,2,0,2,28.3,0,29,0,27.5,0,0,2,0,2,28.9,0,23.1,0,82.6,0
9/4/2004 4:30,0,2,0,2,28.2,0,28.8,0,27.5,0,0,2,0,2,28.9,0,23.2,0,83.3,0
9/4/2004 4:45,0,2,0,2,28.3,0,28.8,0,27.5,0,0,2,0,2,28.9,0,23.2,0,84.1,0
9/4/2004 5:00,0,2,0,2,28.3,0,28.9,0,27.4,0,0,2,0,2,28.9,0,23.3,0,84.8,0
9/4/2004 5:15,0,2,0,2,28.2,0,28.8,0,27.4,0,0,2,0,2,29,0,23.3,0,85.3,0
9/4/2004 5:30,0,2,0,2,28,0,28.8,0,27.4,0,0,2,0,2,29,0,23.4,0,85.8,0
9/4/2004 5:45,0,2,0,2,28,0,28.8,0,27.4,0,0,2,0,2,29,0,23.4,0,86.3,0
9/4/2004 6:00,0,2,0,2,28,0,28.7,0,27.4,0,0,2,0,2,29,0,23.5,0,86.8,0
9/4/2004 6:15,0,2,0,2,28.1,0,28.8,0,27.3,0,0,2,0,2,29,0,23.5,0,87.3,0
9/4/2004 6:30,0,2,0,2,28.1,0,28.7,0,27.3,0,0,2,0,2,29,0,23.4,0,87.8,0
9/4/2004 6:45,0,2,0,2,28,0,28.8,0,27.3,0,0,2,0,2,29,0,23.4,0,88.3,0
9/4/2004 7:00,0,2,0,2,28,0,28.7,0,27.3,0,0,2,0,2,29.1,0,23.4,0,88.8,0
9/4/2004 7:15,0,2,0,2,28,0,28.5,0,27.2,0,0,2,0,2,29.1,0,23.2,0,87.8,0
9/4/2004 7:30,0,2,0,2,27.8,0,28.5,0,27.1,0,0,2,0,2,25.2,0,22.9,0,86.8,0
9/4/2004 7:45,0,2,0,2,27.6,0,28.4,0,27,0,0,2,0,2,25.3,0,22.7,0,85.8,0
9/4/2004 8:00,0,2,0,2,27.5,0,28.4,0,27,0,0,2,0,2,25.3,0,22.5,0,84.8,0
9/4/2004 8:15,0,2,0,2,27.4,0,28.3,0,26.7,0,0,2,0,2,25.4,0,22.7,0,83.8,0
9/4/2004 8:30,0,2,0,2,27.4,0,28.1,0,26.6,0,0,2,0,2,25.5,0,22.9,0,82.8,0
9/4/2004 8:45,0,2,0,2,27.4,0,28.3,0,26.4,0,0,2,0,2,25.6,0,23.2,0,81.8,0
9/4/2004 9:00,0,2,0,2,27.2,0,28.4,0,26.3,0,0,2,0,2,25.6,0,23.4,0,80.8,0
9/4/2004 9:15,0,2,0,2,27.5,0,28.4,0,26.2,0,0,2,0,2,25.7,0,23.8,0,78.3,0
9/4/2004 9:30,0,2,0,2,27.6,0,28.4,0,26.3,0,0,2,0,2,25.7,0,24.1,0,75.8,0